Regional Weather Roundup
Issued by NWS Kansas City/Pleasant Hill, MO

Home | Current Version | Previous Version | Graphics & Text | Print | Product List | Glossary Off
Versions: 1 2 3 4 5 6 7 8 9 10 11 12 13 14 15 16 17 18 19 20 21 22 23 24 25 26 27 28 29 30 31 32 33 34 35 36 37 38 39 40 41 42 43 44 45 46 47 48 49 50

000
ASUS43 KEAX 251004
RWREAX

WEATHER ROUNDUP FOR EASTERN KANSAS AND NORTHWEST MISSOURI
NATIONAL WEATHER SERVICE KANSAS CITY/PLEASANT HILL MO
400 AM CST THU DEC 25 2014

KSZ040-057-103>105-MOZ028-029-037-043-251100-
...KANSAS CITY METROPOLITAN AREA...

CITY           SKY/WX    TMP DP  RH WIND       PRES   REMARKS
K.C. INTL      PTCLDY    31  27  85 S14       29.78F WCI  21
K.C. DOWNTOWN  CLEAR     33  27  78 S9        29.81F WCI  25
LEES SUMMIT    CLEAR     30  27  88 S10       29.82F WCI  21
OLATHE - IXD   CLEAR     29  27  92 S12       29.80F WCI  19
OLATHE - OJC   CLEAR     31  28  89 S10       29.80F WCI  22
LAWRENCE       CLEAR     29  25  85 SE7       29.79F WCI  22

$$

MOZ001>008-011>017-020>025-030>033-038>040-044>046-053-054-251100-
...NORTHERN AND CENTRAL MISSOURI...

CITY           SKY/WX    TMP DP  RH WIND       PRES   REMARKS
ST. JOSEPH     PTCLDY    30  27  88 S8        29.77F WCI  22
MOSBY          MOSUNNY   32  30  93 SE5       29.81F WCI  27
WARRENSBURG    CLEAR     30  28  93 S8        29.85S WCI  23
WHITEMAN AFB   NOT AVBL
CLINTON        CLEAR     32  30  93 S7        29.88S WCI  26
SEDALIA        CLEAR     31  28  89 S10       29.87S WCI  22
WARSAW         NOT AVBL
MARSHALL       CLEAR     34  32  93 S8        29.87S WCI  27
CHILLICOTHE      N/A     32  28  85 S8        29.83S WCI  25
MOBERLY        CLEAR     32  28  86 S8        29.85F WCI  25
KIRKSVILLE     CLEAR     30  28  92 S8        29.82F WCI  22

$$

MOZ041-047>049-056>058-063>065-088>090-097-251100-
...EASTERN AND SOUTHERN MISSOURI...

CITY           SKY/WX    TMP DP  RH WIND       PRES   REMARKS
ST. LOUIS INTL CLOUDY    39  31  72 SW9       29.94R WCI  33
SPIRIT OF STL  CLOUDY    37  30  75 SW9       29.93S WCI  30
COLUMBIA       CLEAR     31  28  89 S9        29.88F WCI  23
JEFFERSON CITY CLEAR     33  28  81 S5        29.92S WCI  29
MEXICO         CLEAR     34  34 100 S7        29.88F WCI  28
HANNIBAL       CLOUDY    36  28  75 SW6       29.87F WCI  31
ROLLA          CLEAR     31  27  85 S10       29.89F WCI  22
LEBANON        CLEAR     32  28  86 S7        29.90F WCI  26
OSAGE BEACH    CLEAR     30  27  86 S5        29.90S WCI  25
SPRINGFIELD    CLEAR     31  27  85 S10       29.89F WCI  22
NEVADA         CLEAR     30  28  93 S10       29.87F WCI  21
JOPLIN         CLEAR     34  29  82 S12       29.89F WCI  25
WEST PLAINS    CLEAR     28  24  85 S5        29.96R WCI  23

$$

IAZ060-094-KSZ022-034>040-054-083-096-NEZ052-066-093-251100-
...KANSAS...SOUTHEAST NEBRASKA AND IOWA...

CITY           SKY/WX    TMP DP  RH WIND       PRES   REMARKS
TOPEKA         CLEAR     34  27  75 S8        29.77F WCI  27
MANHATTAN      CLOUDY    36  25  64 SW12      29.70F WCI  28
EMPORIA        PTCLDY    29  25  85 S17       29.74F WCI  17
CHANUTE        CLEAR     32  29  88 S12       29.83F WCI  23
WICHITA        MOCLDY    34  24  67 S15       29.71F WCI  24
OMAHA          MOCLDY    30  27  88 S12       29.66F WCI  20
LINCOLN        CLOUDY    33  26  75 S9        29.64F WCI  25
FALLS CITY     MOCLDY    32  26  78 S14       29.72S WCI  22
LAMONI         CLEAR     28  27  96 S12       29.75F WCI  18
DES MOINES     CLEAR     31  27  85 S12       29.73F WCI  22

$$




USA.gov is the U.S. government's official web portal to all federal, state and local government web resources and services.